Location: Carrer del Canonge
(41.4901°N, 2.2931°E)
Time: 13:34:37
(UTC+00:00)

ISS - Pass Details

Date: 04 December 2020
Orbit: 418 x 419 km, 51.6° (Epoch: 18 January)

Event Time Altitude Azimuth Distance (km) Brightness Sun altitude
Rises 17:08:35 0° 308° (NW) 2,369 0.5 -8.8°
Reaches altitude 10° 17:11:05 10° 327° (NNW) 1,503 -0.8 -9.3°
Maximum altitude 17:13:39 20° 16° (NNE) 1,038 -2.1 -9.7°
Enters shadow 17:15:24 14° 55° (NE) 1,271 -1.9 -10.0°
